(344646) = 2003 QN67

Discovered at Palomar on 2003-08-23 by NEAT.

Orbit

Orbit type: Main Belt

Note: WebGL enabled browser required.

epoch2024-03-31.0
epoch JD2460400.5
perihelion date2026-04-04.40666
perihelion JD2461134.90666
argument of perihelion (°)255.07834
ascending node (°)47.13693
inclination (°)9.95638
eccentricity0.2884338
perihelion distance (AU)1.9606363
Tisserand w.r.t. Jupiter3.3
ΔV w.r.t. Earth (km/sec)9.3
semimajor axis (AU)2.7553815
mean anomaly (°)201.74121
mean daily motion (°/day)0.21549200
aphelion distance (AU)3.550
period (years)4.57
P-vector [x]0.52243504
P-vector [y]-0.70069850
P-vector [z]-0.48588398
Q-vector [x]0.84320864
Q-vector [y]0.50924103
Q-vector [z]0.17225782
absolute magnitude16.6
phase slope0.15
uncertainty0
referenceMPEC 2024-C37
observations used226
oppositions13
arc length (days)8823
first opposition used1999
last opposition used2024
residual rms (arc-secs)0.65
perturbers coarse indicatorM-v
perturbers precise indicator003Ek
first observation date used1999-12-06.0
last observation date used2024-02-01.0
computer nameMPCLINUX
JD of orbit computation2456235.238839
perihelion JD uncertainty (days)1.2191E-04
argument of perihelion uncertainty (°)7.0883E-05
ascending node uncertainty (°)6.4722E-05
inclination uncertainty (°)1.3563E-05
eccentricity uncertainty 7.9119E-08
perihelion distance uncertainty (AU)2.2381E-07
Minimum Orbit Intersection Distances (in AU)
for orbit epoch: 2460200.5, reference: E2024-C37
Mercury1.51796
Venus1.24108
Earth0.97281
Mars0.5877
Jupiter1.81219
Saturn5.63073
Uranus15.0785
Neptune26.7056

Observations

232 total observations over interval: 1999 12 06.25959 – 2024 02 01.512557
These data are available for download (format description).

Date (UT) J2000 RA J2000 Dec Magn Location Ref
1999 12 06.25959 03 31 43.43 +22 47 20.2 21.8 V 691 – Steward Observatory, Kitt Peak-Spacewatch MPS 1086753
1999 12 06.28747 03 31 41.83 +22 47 18.2 22.1 V 691 – Steward Observatory, Kitt Peak-Spacewatch MPS 1086753
1999 12 06.31132 03 31 40.47 +22 47 17.4 22.0 V 691 – Steward Observatory, Kitt Peak-Spacewatch MPS 1086753
2003 08 23.47685 23 59 47.90 -18 48 37.6 18.3   644 – Palomar Mountain/NEAT MPS 83520
2003 08 23.48747 23 59 47.47 -18 48 40.1 18.3   644 – Palomar Mountain/NEAT MPS 83520
2003 08 23.50081 23 59 46.91 -18 48 43.2 18.9   644 – Palomar Mountain/NEAT MPS 83520
2003 08 27.01626 23 57 21.17 -19 02 17.6 19.0 R 106 – Crni Vrh MPS 83520
2003 08 27.02678 23 57 20.66 -19 02 19.0 18.4 R 106 – Crni Vrh MPS 83520
2003 08 30.44114 23 54 41.34 -19 14 14.1 20.3   608 – Haleakala-AMOS MPS 84121
2003 08 30.45201 23 54 40.82 -19 14 16.5 20.9   608 – Haleakala-AMOS MPS 84121
2003 08 30.46236 23 54 40.31 -19 14 19.2 20.8   608 – Haleakala-AMOS MPS 84121
2003 08 31.32075 23 53 57.78 -19 17 05.6 18.7 C 704 – Lincoln Laboratory ETS, New Mexico MPS 290166
2003 08 31.33254 23 53 57.20 -19 17 07.5 18.8 C 704 – Lincoln Laboratory ETS, New Mexico MPS 290166
2003 08 31.34440 23 53 56.49 -19 17 09.5 19.0 C 704 – Lincoln Laboratory ETS, New Mexico MPS 290166
2003 08 31.35611 23 53 55.88 -19 17 10.4 19.4 C 704 – Lincoln Laboratory ETS, New Mexico MPS 290166
2003 08 31.36843 23 53 55.23 -19 17 11.9 18.8 C 704 – Lincoln Laboratory ETS, New Mexico MPS 290166
2003 09 16.22914 23 39 16.26 -19 43 19.9 19.1   704 – Lincoln Laboratory ETS, New Mexico MPS 84581
2003 09 16.25317 23 39 14.82 -19 43 20.0 19.5   704 – Lincoln Laboratory ETS, New Mexico MPS 84581
2003 09 16.26498 23 39 14.10 -19 43 19.4 18.8   704 – Lincoln Laboratory ETS, New Mexico MPS 84581
2003 09 16.27724 23 39 13.31 -19 43 18.8 19.1   704 – Lincoln Laboratory ETS, New Mexico MPS 84581
2003 09 25.40994 23 30 53.53 -19 31 31.0 20.3   608 – Haleakala-AMOS MPS 85284
2003 09 25.42114 23 30 52.91 -19 31 29.1 20.7   608 – Haleakala-AMOS MPS 85284
2003 09 25.43135 23 30 52.36 -19 31 27.3 20.9   608 – Haleakala-AMOS MPS 85284
2003 09 27.26999 23 29 20.11 -19 26 30.8 18.9 R 699 – Lowell Observatory-LONEOS MPS 86251
2003 09 27.28490 23 29 19.49 -19 26 28.6   699 – Lowell Observatory-LONEOS MPS 86251
2003 09 27.29984 23 29 18.68 -19 26 25.3   699 – Lowell Observatory-LONEOS MPS 86251
2003 09 27.31481 23 29 17.90 -19 26 23.6   699 – Lowell Observatory-LONEOS MPS 86251
2007 04 22.34037 14 59 16.74 -14 42 11.9 20.0 V 691 – Steward Observatory, Kitt Peak-Spacewatch MPS 208882
2007 04 22.35945 14 59 15.68 -14 42 12.4 19.9 V 691 – Steward Observatory, Kitt Peak-Spacewatch MPS 208882
2007 04 22.37654 14 59 14.73 -14 42 13.1 19.8 V 691 – Steward Observatory, Kitt Peak-Spacewatch MPS 208882
2007 05 08.26050 14 43 22.91 -14 50 13.9 18.9 R 699 – Lowell Observatory-LONEOS MPS 208882
2007 05 08.27876 14 43 21.69 -14 50 13.8   699 – Lowell Observatory-LONEOS MPS 208882
2007 05 08.29701 14 43 20.59 -14 50 13.7   699 – Lowell Observatory-LONEOS MPS 208882
2007 05 08.31527 14 43 19.32 -14 50 15.2   699 – Lowell Observatory-LONEOS MPS 208882
2007 05 09.28673 14 42 17.49 -14 50 41.4 19.0 V G96 – Mt. Lemmon Survey MPS 208882
2007 05 09.29479 14 42 16.95 -14 50 41.7 19.0 V G96 – Mt. Lemmon Survey MPS 208882
2007 05 09.30299 14 42 16.41 -14 50 42.0 19.1 V G96 – Mt. Lemmon Survey MPS 208882
2007 05 09.31109 14 42 15.87 -14 50 42.2 19.0 V G96 – Mt. Lemmon Survey MPS 208882
2007 05 14.29947 14 37 00.29 -14 53 13.1 19.6   704 – Lincoln Laboratory ETS, New Mexico MPS 208882
2007 05 14.30873 14 36 59.69 -14 53 13.9 19.9   704 – Lincoln Laboratory ETS, New Mexico MPS 208882
2007 05 14.31799 14 36 59.08 -14 53 12.9 19.3   704 – Lincoln Laboratory ETS, New Mexico MPS 208882
2008 09 22.44043 03 37 23.34 +16 48 21.7 20.8 V G96 – Mt. Lemmon Survey MPS 256620
2008 09 22.44881 03 37 23.23 +16 48 22.8 20.5 V G96 – Mt. Lemmon Survey MPS 256620
2008 09 22.45715 03 37 23.12 +16 48 24.3 20.6 V G96 – Mt. Lemmon Survey MPS 256620
2008 09 22.46554 03 37 23.01 +16 48 24.9 20.8 V G96 – Mt. Lemmon Survey MPS 256620
2008 10 23.26618 03 19 21.07 +17 15 39.3 20.1 V 691 – Steward Observatory, Kitt Peak-Spacewatch MPS 260550
2008 10 23.28381 03 19 20.01 +17 15 40.0 20.3 V 691 – Steward Observatory, Kitt Peak-Spacewatch MPS 260550
2008 10 23.30144 03 19 19.00 +17 15 39.7 20.1 V 691 – Steward Observatory, Kitt Peak-Spacewatch MPS 260550
2008 10 31.18374 03 11 25.48 +17 12 30.6   691 – Steward Observatory, Kitt Peak-Spacewatch MPS 261414
2008 10 31.20140 03 11 24.42 +17 12 30.1   691 – Steward Observatory, Kitt Peak-Spacewatch MPS 261414
2008 10 31.21904 03 11 23.27 +17 12 29.9   691 – Steward Observatory, Kitt Peak-Spacewatch MPS 261414
2008 11 07.20235 03 03 59.48 +17 07 19.5 20.0 V 691 – Steward Observatory, Kitt Peak-Spacewatch MPS 263120
2008 11 07.21996 03 03 58.30 +17 07 19.0 20.0 V 691 – Steward Observatory, Kitt Peak-Spacewatch MPS 263120
2008 11 07.24101 03 03 56.93 +17 07 17.5 20.2 V 691 – Steward Observatory, Kitt Peak-Spacewatch MPS 263121
2008 11 20.21611 02 50 38.11 +16 55 18.6 19.9 V G96 – Mt. Lemmon Survey MPS 265190
2008 11 20.22168 02 50 37.78 +16 55 18.4 20.1 V G96 – Mt. Lemmon Survey MPS 265190
2008 11 20.22733 02 50 37.42 +16 55 17.8 20.1 V G96 – Mt. Lemmon Survey MPS 265190
2008 11 20.23287 02 50 37.10 +16 55 17.6 20.1 V G96 – Mt. Lemmon Survey MPS 265190
2011 03 12.33080 11 39 39.52 +15 43 27.4 20.9 V G96 – Mt. Lemmon Survey MPS 374786
2011 03 12.33881 11 39 39.06 +15 43 29.6 20.9 V G96 – Mt. Lemmon Survey MPS 374786
2011 03 12.34583 11 39 38.62 +15 43 31.4 21.0 V G96 – Mt. Lemmon Survey MPS 374786
2011 03 12.35274 11 39 38.30 +15 43 33.9 21.3 V G96 – Mt. Lemmon Survey MPS 374786
2011 03 13.45951 11 38 37.89 +15 48 32.5 20.9 V G96 – Mt. Lemmon Survey MPS 374786
2011 03 13.46684 11 38 37.46 +15 48 34.2 20.4 V G96 – Mt. Lemmon Survey MPS 374786
2011 03 13.47418 11 38 37.06 +15 48 36.6 20.7 V G96 – Mt. Lemmon Survey MPS 374786
2011 03 13.48147 11 38 36.67 +15 48 38.2 20.9 V G96 – Mt. Lemmon Survey MPS 374786
2012 09 13.58685 21 17 09.02 -33 49 39.9 19.4 V E12 – Siding Spring Survey MPS 431320
2012 09 13.60089 21 17 08.88 -33 49 34.5 19.1 V E12 – Siding Spring Survey MPS 431320
2012 09 13.61506 21 17 08.77 -33 49 26.5 19.6 V E12 – Siding Spring Survey MPS 431320
2012 09 13.62926 21 17 08.70 -33 49 19.3 19.6 V E12 – Siding Spring Survey MPS 431320
2012 11 02.240681 21 48 06.174 -24 41 40.78 20.7 r F51 – Pan-STARRS 1, Haleakala MPS 439452
2012 11 02.250379 21 48 06.839 -24 41 33.10 20.5 r F51 – Pan-STARRS 1, Haleakala MPS 439452
2015 01 20.38220 09 41 48.92 +28 07 15.5 20.3 V G96 – Mt. Lemmon Survey MPS 567149
2015 01 20.39004 09 41 48.59 +28 07 18.7 21.2 V G96 – Mt. Lemmon Survey MPS 567149
2015 01 20.40571 09 41 47.88 +28 07 23.7 21.1 V G96 – Mt. Lemmon Survey MPS 567149
2016 03 06.59293 14 08 13.654 -05 23 51.72 20.9 w F51 – Pan-STARRS 1, Haleakala MPS 692354
2016 03 06.60558 14 08 13.471 -05 23 51.09 21.0 w F51 – Pan-STARRS 1, Haleakala MPS 692354
2016 03 06.61822 14 08 13.313 -05 23 50.69 21.0 w F51 – Pan-STARRS 1, Haleakala MPS 692354
2016 03 08.48676 14 07 48.888 -05 22 14.42 20.9 w F51 – Pan-STARRS 1, Haleakala MPS 692354
2016 03 08.49906 14 07 48.702 -05 22 13.76 20.9 w F51 – Pan-STARRS 1, Haleakala MPS 692354
2016 03 08.51136 14 07 48.490 -05 22 13.00 20.9 w F51 – Pan-STARRS 1, Haleakala MPS 692354
2016 03 08.52369 14 07 48.283 -05 22 12.25 20.8 w F51 – Pan-STARRS 1, Haleakala MPS 692354
2016 03 17.51115 14 04 32.672 -05 10 20.72 20.5 r F51 – Pan-STARRS 1, Haleakala MPS 695688
2016 03 17.52353 14 04 32.277 -05 10 19.38 20.6 r F51 – Pan-STARRS 1, Haleakala MPS 695688
2016 03 17.53588 14 04 31.920 -05 10 18.29 20.6 r F51 – Pan-STARRS 1, Haleakala MPS 695688
2016 04 01.41955 13 54 47.749 -04 39 12.40 20.1 w F51 – Pan-STARRS 1, Haleakala MPS 698472
2016 04 01.43626 13 54 46.899 -04 39 09.98 20.1 w F51 – Pan-STARRS 1, Haleakala MPS 698472
2016 04 01.44644 13 54 46.385 -04 39 08.50 20.2 w F51 – Pan-STARRS 1, Haleakala MPS 698472
2016 04 01.44973 13 54 46.214 -04 39 08.07 20.2 w F51 – Pan-STARRS 1, Haleakala MPS 698472
2016 04 01.46321 13 54 45.533 -04 39 06.10 20.2 w F51 – Pan-STARRS 1, Haleakala MPS 698472
